Time,TemperatureF,DewpointF,PressureIn,WindDirection,WindDirectionDegrees,WindSpeedMPH,WindSpeedGustMPH,Humidity,HourlyPrecipIn,Conditions,Clouds,dailyrainin,SoftwareType,DateUTC
2013-01-17 00:03:00,38.8,37.8,30.23,WNW,298,0.0,-999.0,96,0.00,,,0.00,WeatherSnoop3.0,2013-01-17 06:03:00,
2013-01-17 00:08:00,38.8,37.8,30.22,WNW,298,0.0,-999.0,96,0.00,,,0.00,WeatherSnoop3.0,2013-01-17 06:08:00,
2013-01-17 00:13:00,38.8,37.8,30.22,WNW,298,0.0,-999.0,96,0.00,,,0.00,WeatherSnoop3.0,2013-01-17 06:13:00,
2013-01-17 00:18:00,38.8,37.5,30.23,WNW,298,0.0,-999.0,95,0.00,,,0.00,WeatherSnoop3.0,2013-01-17 06:18:00,
2013-01-17 00:23:00,38.7,37.7,30.23,WNW,297,0.0,-999.0,96,0.00,,,0.00,WeatherSnoop3.0,2013-01-17 06:23:00,
2013-01-17 00:28:00,38.6,37.6,30.23,WNW,298,0.0,-999.0,96,0.00,,,0.00,WeatherSnoop3.0,2013-01-17 06:28:00,
2013-01-17 00:33:00,38.5,37.2,30.23,WNW,298,0.0,-999.0,95,0.00,,,0.00,WeatherSnoop3.0,2013-01-17 06:33:00,
2013-01-17 00:38:00,38.3,37.3,30.23,WNW,298,0.0,-999.0,96,0.00,,,0.00,WeatherSnoop3.0,2013-01-17 06:38:00,
2013-01-17 00:43:00,38.1,36.8,30.23,WNW,298,0.0,-999.0,95,0.00,,,0.00,WeatherSnoop3.0,2013-01-17 06:43:00,
2013-01-17 00:48:00,37.8,36.5,30.23,WNW,298,0.0,-999.0,95,0.00,,,0.00,WeatherSnoop3.0,2013-01-17 06:48:00,
2013-01-17 00:53:00,37.6,36.3,30.23,WNW,298,0.0,-999.0,95,0.00,,,0.00,WeatherSnoop3.0,2013-01-17 06:53:00,
2013-01-17 00:58:00,37.3,36.0,30.22,WNW,298,0.0,-999.0,95,0.00,,,0.00,WeatherSnoop3.0,2013-01-17 06:58:00,
2013-01-17 01:03:00,37.1,35.8,30.23,WNW,298,0.0,-999.0,95,0.00,,,0.00,WeatherSnoop3.0,2013-01-17 07:03:00,
2013-01-17 01:08:00,37.0,35.7,30.23,WNW,298,0.0,-999.0,95,0.00,,,0.00,WeatherSnoop3.0,2013-01-17 07:08:00,
2013-01-17 01:13:00,36.9,35.9,30.23,WNW,298,0.0,-999.0,96,0.00,,,0.00,WeatherSnoop3.0,2013-01-17 07:13:00,
2013-01-17 01:18:00,36.8,35.8,30.23,WNW,298,0.0,-999.0,96,0.00,,,0.00,WeatherSnoop3.0,2013-01-17 07:18:00,
2013-01-17 01:23:00,36.5,35.5,30.23,WNW,299,0.0,-999.0,96,0.00,,,0.00,WeatherSnoop3.0,2013-01-17 07:23:00,
2013-01-17 01:28:00,36.4,35.4,30.23,WNW,299,0.0,-999.0,96,0.00,,,0.00,WeatherSnoop3.0,2013-01-17 07:28:00,
2013-01-17 01:33:00,36.3,35.3,30.23,WNW,298,0.0,-999.0,96,0.00,,,0.00,WeatherSnoop3.0,2013-01-17 07:33:00,
2013-01-17 01:38:00,36.0,35.0,30.23,WNW,298,0.0,-999.0,96,0.00,,,0.00,WeatherSnoop3.0,2013-01-17 07:38:00,
2013-01-17 01:43:00,35.9,34.9,30.23,WNW,298,0.0,-999.0,96,0.00,,,0.00,WeatherSnoop3.0,2013-01-17 07:43:00,
2013-01-17 01:48:00,35.8,34.8,30.24,WNW,298,0.0,-999.0,96,0.00,,,0.00,WeatherSnoop3.0,2013-01-17 07:48:00,
2013-01-17 01:53:00,35.6,34.6,30.23,WNW,298,0.0,-999.0,96,0.00,,,0.00,WeatherSnoop3.0,2013-01-17 07:53:00,
2013-01-17 01:58:00,35.6,34.6,30.23,WNW,298,0.0,-999.0,96,0.00,,,0.00,WeatherSnoop3.0,2013-01-17 07:58:00,
2013-01-17 02:03:00,35.7,34.7,30.24,WNW,298,0.0,-999.0,96,0.00,,,0.00,WeatherSnoop3.0,2013-01-17 08:03:00,
2013-01-17 02:08:00,35.7,34.7,30.24,WNW,298,0.0,-999.0,96,0.00,,,0.00,WeatherSnoop3.0,2013-01-17 08:08:00,
2013-01-17 02:13:00,35.5,34.5,30.24,WNW,297,0.0,-999.0,96,0.00,,,0.00,WeatherSnoop3.0,2013-01-17 08:13:00,
2013-01-17 02:18:00,35.5,34.7,30.24,WNW,298,0.0,-999.0,97,0.00,,,0.00,WeatherSnoop3.0,2013-01-17 08:18:00,
2013-01-17 02:23:00,35.5,34.7,30.24,WNW,298,0.0,-999.0,97,0.00,,,0.00,WeatherSnoop3.0,2013-01-17 08:23:00,
2013-01-17 02:28:00,35.5,34.7,30.24,North,360,0.0,-999.0,97,0.00,,,0.00,WeatherSnoop3.0,2013-01-17 08:28:00,
2013-01-17 02:33:00,35.6,34.8,30.25,WNW,298,0.0,-999.0,97,0.00,,,0.00,WeatherSnoop3.0,2013-01-17 08:33:00,
2013-01-17 02:38:00,35.7,34.9,30.24,WNW,299,3.0,-999.0,97,0.00,,,0.00,WeatherSnoop3.0,2013-01-17 08:38:00,
2013-01-17 02:43:00,35.9,35.1,30.24,WNW,298,0.0,-999.0,97,0.00,,,0.00,WeatherSnoop3.0,2013-01-17 08:43:00,
2013-01-17 02:48:00,36.0,35.2,30.24,West,274,0.0,-999.0,97,0.00,,,0.00,WeatherSnoop3.0,2013-01-17 08:48:00,
2013-01-17 02:53:00,36.0,35.2,30.24,West,273,0.0,-999.0,97,0.00,,,0.00,WeatherSnoop3.0,2013-01-17 08:53:00,
2013-01-17 02:58:00,36.0,35.2,30.24,West,275,4.0,-999.0,97,0.00,,,0.00,WeatherSnoop3.0,2013-01-17 08:58:00,
2013-01-17 03:03:00,36.1,35.3,30.24,WNW,286,6.0,-999.0,97,0.00,,,0.00,WeatherSnoop3.0,2013-01-17 09:03:00,
2013-01-17 03:08:00,36.1,35.3,30.25,West,274,1.0,-999.0,97,0.00,,,0.00,WeatherSnoop3.0,2013-01-17 09:08:00,
2013-01-17 03:13:00,36.1,35.3,30.25,West,275,0.0,-999.0,97,0.00,,,0.00,WeatherSnoop3.0,2013-01-17 09:13:00,
2013-01-17 03:18:00,36.1,35.3,30.25,West,281,7.0,-999.0,97,0.00,,,0.00,WeatherSnoop3.0,2013-01-17 09:18:00,
2013-01-17 03:23:00,36.1,35.1,30.25,West,277,5.0,-999.0,96,0.00,,,0.00,WeatherSnoop3.0,2013-01-17 09:23:00,
2013-01-17 03:28:00,36.2,35.2,30.25,West,279,0.0,-999.0,96,0.00,,,0.00,WeatherSnoop3.0,2013-01-17 09:28:00,
2013-01-17 03:33:00,36.2,34.9,30.25,WNW,294,3.0,-999.0,95,0.00,,,0.00,WeatherSnoop3.0,2013-01-17 09:33:00,
2013-01-17 03:38:00,36.2,34.6,30.25,North,360,0.0,-999.0,94,0.00,,,0.00,WeatherSnoop3.0,2013-01-17 09:38:00,
2013-01-17 03:43:00,36.1,34.5,30.25,WNW,288,0.0,-999.0,94,0.00,,,0.00,WeatherSnoop3.0,2013-01-17 09:43:00,
2013-01-17 03:48:00,36.1,34.3,30.25,WNW,288,0.0,-999.0,93,0.00,,,0.00,WeatherSnoop3.0,2013-01-17 09:48:00,
2013-01-17 03:53:00,35.9,34.1,30.25,WNW,288,0.0,-999.0,93,0.00,,,0.00,WeatherSnoop3.0,2013-01-17 09:53:00,
2013-01-17 03:58:00,35.9,34.1,30.26,WNW,288,0.0,-999.0,93,0.00,,,0.00,WeatherSnoop3.0,2013-01-17 09:58:00,
2013-01-17 04:03:00,35.7,33.9,30.26,WNW,288,0.0,-999.0,93,0.00,,,0.00,WeatherSnoop3.0,2013-01-17 10:03:00,
2013-01-17 04:08:00,35.6,33.8,30.26,WNW,289,0.0,-999.0,93,0.00,,,0.00,WeatherSnoop3.0,2013-01-17 10:08:00,
2013-01-17 04:13:00,35.6,33.8,30.26,WNW,288,0.0,-999.0,93,0.00,,,0.00,WeatherSnoop3.0,2013-01-17 10:13:00,
2013-01-17 04:18:00,35.7,33.6,30.26,WNW,288,0.0,-999.0,92,0.00,,,0.00,WeatherSnoop3.0,2013-01-17 10:18:00,
2013-01-17 04:23:00,35.6,33.5,30.26,WNW,289,0.0,-999.0,92,0.00,,,0.00,WeatherSnoop3.0,2013-01-17 10:23:00,
2013-01-17 04:28:00,35.5,33.4,30.26,WNW,289,0.0,-999.0,92,0.00,,,0.00,WeatherSnoop3.0,2013-01-17 10:28:00,
2013-01-17 04:33:00,35.4,33.3,30.26,WNW,289,1.0,-999.0,92,0.00,,,0.00,WeatherSnoop3.0,2013-01-17 10:33:00,
2013-01-17 04:38:00,35.3,33.2,30.26,WNW,288,0.0,-999.0,92,0.00,,,0.00,WeatherSnoop3.0,2013-01-17 10:38:00,
2013-01-17 04:43:00,35.3,33.2,30.26,WNW,288,0.0,-999.0,92,0.00,,,0.00,WeatherSnoop3.0,2013-01-17 10:43:00,
2013-01-17 04:48:00,35.3,33.2,30.25,WNW,289,0.0,-999.0,92,0.00,,,0.00,WeatherSnoop3.0,2013-01-17 10:48:00,
2013-01-17 04:53:00,35.2,33.1,30.25,WNW,288,0.0,-999.0,92,0.00,,,0.00,WeatherSnoop3.0,2013-01-17 10:53:00,
2013-01-17 04:58:00,35.2,33.1,30.25,WNW,288,0.0,-999.0,92,0.00,,,0.00,WeatherSnoop3.0,2013-01-17 10:58:00,
2013-01-17 05:03:00,35.1,33.0,30.26,WNW,288,0.0,-999.0,92,0.00,,,0.00,WeatherSnoop3.0,2013-01-17 11:03:00,
2013-01-17 05:08:00,34.9,32.8,30.26,WNW,289,0.0,-999.0,92,0.00,,,0.00,WeatherSnoop3.0,2013-01-17 11:08:00,
2013-01-17 05:13:00,34.8,32.7,30.27,WNW,288,0.0,-999.0,92,0.00,,,0.00,WeatherSnoop3.0,2013-01-17 11:13:00,
2013-01-17 05:18:00,34.7,32.6,30.27,WNW,288,0.0,-999.0,92,0.00,,,0.00,WeatherSnoop3.0,2013-01-17 11:18:00,
2013-01-17 05:23:00,34.6,32.5,30.27,WNW,288,0.0,-999.0,92,0.00,,,0.00,WeatherSnoop3.0,2013-01-17 11:23:00,
2013-01-17 05:28:00,34.7,32.6,30.27,WNW,288,0.0,-999.0,92,0.00,,,0.00,WeatherSnoop3.0,2013-01-17 11:28:00,
2013-01-17 05:33:00,34.8,32.4,30.28,WNW,288,0.0,-999.0,91,0.00,,,0.00,WeatherSnoop3.0,2013-01-17 11:33:00,
2013-01-17 05:38:00,34.8,32.4,30.27,WNW,288,0.0,-999.0,91,0.00,,,0.00,WeatherSnoop3.0,2013-01-17 11:38:00,
2013-01-17 05:43:00,34.8,32.4,30.27,WNW,289,0.0,-999.0,91,0.00,,,0.00,WeatherSnoop3.0,2013-01-17 11:43:00,
2013-01-17 05:48:00,34.7,32.3,30.27,WNW,288,0.0,-999.0,91,0.00,,,0.00,WeatherSnoop3.0,2013-01-17 11:48:00,
2013-01-17 05:53:00,34.7,32.1,30.27,WNW,288,0.0,-999.0,90,0.00,,,0.00,WeatherSnoop3.0,2013-01-17 11:53:00,
2013-01-17 05:58:00,34.7,32.1,30.27,WNW,288,0.0,-999.0,90,0.00,,,0.00,WeatherSnoop3.0,2013-01-17 11:58:00,
2013-01-17 06:03:00,34.6,32.2,30.27,WNW,288,3.0,-999.0,91,0.00,,,0.00,WeatherSnoop3.0,2013-01-17 12:03:00,
2013-01-17 06:08:00,34.5,32.1,30.27,WNW,288,0.0,-999.0,91,0.00,,,0.00,WeatherSnoop3.0,2013-01-17 12:08:00,
2013-01-17 06:13:00,34.6,32.0,30.27,WNW,288,0.0,-999.0,90,0.00,,,0.00,WeatherSnoop3.0,2013-01-17 12:13:00,
2013-01-17 06:18:00,34.7,32.1,30.28,WNW,288,0.0,-999.0,90,0.00,,,0.00,WeatherSnoop3.0,2013-01-17 12:18:00,
2013-01-17 06:23:00,34.6,32.0,30.28,WNW,289,0.0,-999.0,90,0.00,,,0.00,WeatherSnoop3.0,2013-01-17 12:23:00,
2013-01-17 06:28:00,34.6,32.0,30.29,WNW,288,0.0,-999.0,90,0.00,,,0.00,WeatherSnoop3.0,2013-01-17 12:28:00,
2013-01-17 06:33:00,34.4,31.8,30.28,WNW,288,0.0,-999.0,90,0.00,,,0.00,WeatherSnoop3.0,2013-01-17 12:33:00,
2013-01-17 06:38:00,34.3,31.4,30.28,WNW,288,0.0,-999.0,89,0.00,,,0.00,WeatherSnoop3.0,2013-01-17 12:38:00,
2013-01-17 06:43:00,34.2,31.3,30.29,North,360,0.0,-999.0,89,0.00,,,0.00,WeatherSnoop3.0,2013-01-17 12:43:00,
2013-01-17 06:48:00,34.1,31.5,30.29,WNW,288,0.0,-999.0,90,0.00,,,0.00,WeatherSnoop3.0,2013-01-17 12:48:00,
2013-01-17 06:53:00,33.9,31.3,30.29,WNW,288,0.0,-999.0,90,0.00,,,0.00,WeatherSnoop3.0,2013-01-17 12:53:00,
2013-01-17 06:58:00,33.7,31.1,30.29,WNW,288,0.0,-999.0,90,0.00,,,0.00,WeatherSnoop3.0,2013-01-17 12:58:00,
2013-01-17 07:03:00,33.5,30.9,30.29,WNW,288,0.0,-999.0,90,0.00,,,0.00,WeatherSnoop3.0,2013-01-17 13:03:00,
2013-01-17 07:08:00,33.4,31.1,30.29,WNW,288,0.0,-999.0,91,0.00,,,0.00,WeatherSnoop3.0,2013-01-17 13:08:00,
2013-01-17 07:13:00,33.5,31.2,30.30,WNW,289,0.0,-999.0,91,0.00,,,0.00,WeatherSnoop3.0,2013-01-17 13:13:00,
2013-01-17 07:18:00,33.5,31.2,30.30,WNW,289,0.0,-999.0,91,0.00,,,0.00,WeatherSnoop3.0,2013-01-17 13:18:00,
2013-01-17 07:23:00,33.5,31.2,30.31,WNW,288,0.0,-999.0,91,0.00,,,0.00,WeatherSnoop3.0,2013-01-17 13:23:00,
2013-01-17 07:28:00,33.5,31.2,30.31,WNW,288,0.0,-999.0,91,0.00,,,0.00,WeatherSnoop3.0,2013-01-17 13:28:00,
2013-01-17 07:33:00,33.4,31.1,30.31,WNW,288,0.0,-999.0,91,0.00,,,0.00,WeatherSnoop3.0,2013-01-17 13:33:00,
2013-01-17 07:38:00,33.5,31.2,30.32,WNW,288,0.0,-999.0,91,0.00,,,0.00,WeatherSnoop3.0,2013-01-17 13:38:00,
2013-01-17 07:43:00,33.7,31.6,30.33,WNW,287,7.0,-999.0,92,0.00,,,0.00,WeatherSnoop3.0,2013-01-17 13:43:00,
2013-01-17 07:48:00,34.1,31.8,30.33,West,276,8.0,-999.0,91,0.00,,,0.00,WeatherSnoop3.0,2013-01-17 13:48:00,
2013-01-17 07:53:00,34.5,32.1,30.33,WNW,297,0.0,-999.0,91,0.00,,,0.00,WeatherSnoop3.0,2013-01-17 13:53:00,
2013-01-17 07:58:00,34.8,32.2,30.34,WNW,296,3.0,-999.0,90,0.00,,,0.00,WeatherSnoop3.0,2013-01-17 13:58:00,
2013-01-17 08:03:00,35.0,32.4,30.34,WNW,299,3.0,-999.0,90,0.00,,,0.00,WeatherSnoop3.0,2013-01-17 14:03:00,
2013-01-17 08:08:00,35.2,32.6,30.34,WNW,301,0.0,-999.0,90,0.00,,,0.00,WeatherSnoop3.0,2013-01-17 14:08:00,
2013-01-17 08:13:00,35.4,32.5,30.34,West,277,2.0,-999.0,89,0.00,,,0.00,WeatherSnoop3.0,2013-01-17 14:13:00,
2013-01-17 08:18:00,35.6,32.4,30.34,WNW,288,3.0,-999.0,88,0.00,,,0.00,WeatherSnoop3.0,2013-01-17 14:18:00,
2013-01-17 08:23:00,35.9,33.0,30.34,WNW,283,0.0,-999.0,89,0.00,,,0.00,WeatherSnoop3.0,2013-01-17 14:23:00,
2013-01-17 08:28:00,36.1,32.9,30.34,West,273,3.0,-999.0,88,0.00,,,0.00,WeatherSnoop3.0,2013-01-17 14:28:00,
2013-01-17 08:33:00,36.4,33.2,30.35,West,270,5.0,-999.0,88,0.00,,,0.00,WeatherSnoop3.0,2013-01-17 14:33:00,
2013-01-17 08:38:00,36.6,33.1,30.35,WNW,292,5.0,-999.0,87,0.00,,,0.00,WeatherSnoop3.0,2013-01-17 14:38:00,
2013-01-17 08:43:00,37.0,33.2,30.35,WNW,283,5.0,-999.0,86,0.00,,,0.00,WeatherSnoop3.0,2013-01-17 14:43:00,
2013-01-17 08:48:00,37.4,33.6,30.36,West,276,0.0,-999.0,86,0.00,,,0.00,WeatherSnoop3.0,2013-01-17 14:48:00,
2013-01-17 08:53:00,37.7,33.9,30.36,West,259,4.0,-999.0,86,0.00,,,0.00,WeatherSnoop3.0,2013-01-17 14:53:00,
2013-01-17 08:58:00,38.0,33.9,30.36,WNW,282,2.0,-999.0,85,0.00,,,0.00,WeatherSnoop3.0,2013-01-17 14:58:00,
2013-01-17 09:03:00,38.3,33.9,30.36,WNW,282,7.0,-999.0,84,0.00,,,0.00,WeatherSnoop3.0,2013-01-17 15:03:00,
2013-01-17 09:08:00,38.6,33.9,30.36,WNW,282,2.0,-999.0,83,0.00,,,0.00,WeatherSnoop3.0,2013-01-17 15:08:00,
2013-01-17 09:13:00,39.1,34.7,30.36,WNW,301,3.0,-999.0,84,0.00,,,0.00,WeatherSnoop3.0,2013-01-17 15:13:00,
2013-01-17 09:18:00,39.5,34.8,30.36,WNW,289,1.0,-999.0,83,0.00,,,0.00,WeatherSnoop3.0,2013-01-17 15:18:00,
2013-01-17 09:23:00,39.8,34.8,30.37,WNW,296,0.0,-999.0,82,0.00,,,0.00,WeatherSnoop3.0,2013-01-17 15:23:00,
2013-01-17 09:28:00,40.2,35.2,30.37,West,274,0.0,-999.0,82,0.00,,,0.00,WeatherSnoop3.0,2013-01-17 15:28:00,
2013-01-17 09:33:00,40.4,34.7,30.38,WNW,289,0.0,-999.0,80,0.00,,,0.00,WeatherSnoop3.0,2013-01-17 15:33:00,
2013-01-17 09:38:00,40.8,35.1,30.38,West,269,3.0,-999.0,80,0.00,,,0.00,WeatherSnoop3.0,2013-01-17 15:38:00,
2013-01-17 09:43:00,41.4,36.3,30.38,WNW,302,5.0,-999.0,82,0.00,,,0.00,WeatherSnoop3.0,2013-01-17 15:43:00,
2013-01-17 09:48:00,41.7,35.4,30.38,North,360,12.0,-999.0,78,0.00,,,0.00,WeatherSnoop3.0,2013-01-17 15:48:00,
2013-01-17 09:53:00,42.0,35.3,30.38,NW,307,4.0,-999.0,77,0.00,,,0.00,WeatherSnoop3.0,2013-01-17 15:53:00,
2013-01-17 09:58:00,42.2,35.8,30.38,NW,317,11.0,-999.0,78,0.00,,,0.00,WeatherSnoop3.0,2013-01-17 15:58:00,
2013-01-17 10:03:00,42.3,35.0,30.38,WNW,300,10.0,-999.0,75,0.00,,,0.00,WeatherSnoop3.0,2013-01-17 16:03:00,
2013-01-17 10:08:00,42.7,36.0,30.38,WNW,294,4.0,-999.0,77,0.00,,,0.00,WeatherSnoop3.0,2013-01-17 16:08:00,
2013-01-17 10:13:00,43.0,36.0,30.38,NW,311,7.0,-999.0,76,0.00,,,0.00,WeatherSnoop3.0,2013-01-17 16:13:00,
2013-01-17 10:18:00,43.4,36.0,30.38,WSW,250,0.0,-999.0,75,0.00,,,0.00,WeatherSnoop3.0,2013-01-17 16:18:00,
2013-01-17 10:23:00,43.7,36.6,30.38,WSW,257,7.0,-999.0,76,0.00,,,0.00,WeatherSnoop3.0,2013-01-17 16:23:00,
2013-01-17 10:28:00,43.8,36.1,30.38,WNW,283,3.0,-999.0,74,0.00,,,0.00,WeatherSnoop3.0,2013-01-17 16:28:00,
2013-01-17 10:33:00,44.0,35.6,30.37,NW,315,9.0,-999.0,72,0.00,,,0.00,WeatherSnoop3.0,2013-01-17 16:33:00,
2013-01-17 10:38:00,44.2,35.8,30.37,WNW,292,2.0,-999.0,72,0.00,,,0.00,WeatherSnoop3.0,2013-01-17 16:38:00,
2013-01-17 10:43:00,44.7,36.6,30.37,WNW,296,7.0,-999.0,73,0.00,,,0.00,WeatherSnoop3.0,2013-01-17 16:43:00,
2013-01-17 10:48:00,45.1,36.3,30.37,WNW,288,8.0,-999.0,71,0.00,,,0.00,WeatherSnoop3.0,2013-01-17 16:48:00,
2013-01-17 10:53:00,45.3,35.7,30.37,NW,319,6.0,-999.0,69,0.00,,,0.00,WeatherSnoop3.0,2013-01-17 16:53:00,
2013-01-17 10:58:00,45.6,36.4,30.37,WNW,284,8.0,-999.0,70,0.00,,,0.00,WeatherSnoop3.0,2013-01-17 16:58:00,
2013-01-17 11:03:00,45.9,37.4,30.37,West,275,6.0,-999.0,72,0.00,,,0.00,WeatherSnoop3.0,2013-01-17 17:03:00,
2013-01-17 11:08:00,46.2,36.6,30.37,WNW,287,0.0,-999.0,69,0.00,,,0.00,WeatherSnoop3.0,2013-01-17 17:08:00,
2013-01-17 11:13:00,46.7,37.8,30.36,NW,317,6.0,-999.0,71,0.00,,,0.00,WeatherSnoop3.0,2013-01-17 17:13:00,
2013-01-17 11:18:00,47.1,37.5,30.36,NW,304,4.0,-999.0,69,0.00,,,0.00,WeatherSnoop3.0,2013-01-17 17:18:00,
2013-01-17 11:23:00,47.6,36.8,30.36,WNW,301,8.0,-999.0,66,0.00,,,0.00,WeatherSnoop3.0,2013-01-17 17:23:00,
2013-01-17 11:28:00,47.8,37.8,30.36,NW,325,6.0,-999.0,68,0.00,,,0.00,WeatherSnoop3.0,2013-01-17 17:28:00,
2013-01-17 11:33:00,47.9,36.7,30.36,NNW,327,8.0,-999.0,65,0.00,,,0.00,WeatherSnoop3.0,2013-01-17 17:33:00,
2013-01-17 11:38:00,48.0,36.4,30.35,NW,312,6.0,-999.0,64,0.00,,,0.00,WeatherSnoop3.0,2013-01-17 17:38:00,
2013-01-17 11:43:00,48.1,37.3,30.35,NW,321,7.0,-999.0,66,0.00,,,0.00,WeatherSnoop3.0,2013-01-17 17:43:00,
2013-01-17 11:48:00,48.9,38.8,30.35,NW,320,10.0,-999.0,68,0.00,,,0.00,WeatherSnoop3.0,2013-01-17 17:48:00,
2013-01-17 11:53:00,48.9,36.9,30.34,WNW,292,7.0,-999.0,63,0.00,,,0.00,WeatherSnoop3.0,2013-01-17 17:53:00,
2013-01-17 11:58:00,49.2,37.6,30.34,NNW,329,10.0,-999.0,64,0.00,,,0.00,WeatherSnoop3.0,2013-01-17 17:58:00,
2013-01-17 12:03:00,49.5,36.6,30.34,WNW,295,5.0,-999.0,61,0.00,,,0.00,WeatherSnoop3.0,2013-01-17 18:03:00,
2013-01-17 12:08:00,49.7,36.0,30.34,NW,309,9.0,-999.0,59,0.00,,,0.00,WeatherSnoop3.0,2013-01-17 18:08:00,
2013-01-17 12:13:00,49.9,36.6,30.34,WNW,293,6.0,-999.0,60,0.00,,,0.00,WeatherSnoop3.0,2013-01-17 18:13:00,
2013-01-17 12:18:00,50.1,37.2,30.33,North,360,11.0,-999.0,61,0.00,,,0.00,WeatherSnoop3.0,2013-01-17 18:18:00,
2013-01-17 12:23:00,50.5,36.3,30.33,NW,315,10.0,-999.0,58,0.00,,,0.00,WeatherSnoop3.0,2013-01-17 18:23:00,
2013-01-17 12:28:00,50.6,37.2,30.33,WNW,300,7.0,-999.0,60,0.00,,,0.00,WeatherSnoop3.0,2013-01-17 18:28:00,
2013-01-17 12:33:00,51.1,36.4,30.32,WNW,292,5.0,-999.0,57,0.00,,,0.00,WeatherSnoop3.0,2013-01-17 18:33:00,
2013-01-17 12:38:00,51.1,36.4,30.33,NW,311,8.0,-999.0,57,0.00,,,0.00,WeatherSnoop3.0,2013-01-17 18:38:00,
2013-01-17 12:43:00,51.3,37.5,30.32,WNW,294,3.0,-999.0,59,0.00,,,0.00,WeatherSnoop3.0,2013-01-17 18:43:00,
2013-01-17 12:48:00,51.5,36.8,30.32,NW,307,9.0,-999.0,57,0.00,,,0.00,WeatherSnoop3.0,2013-01-17 18:48:00,
2013-01-17 12:53:00,51.9,35.8,30.32,WNW,288,8.0,-999.0,54,0.00,,,0.00,WeatherSnoop3.0,2013-01-17 18:53:00,
2013-01-17 12:58:00,52.3,35.7,30.32,NW,323,10.0,-999.0,53,0.00,,,0.00,WeatherSnoop3.0,2013-01-17 18:58:00,
2013-01-17 13:03:00,52.7,37.4,30.32,NNE,12,4.0,-999.0,56,0.00,,,0.00,WeatherSnoop3.0,2013-01-17 19:03:00,
2013-01-17 13:08:00,53.0,35.9,30.31,WNW,294,2.0,-999.0,52,0.00,,,0.00,WeatherSnoop3.0,2013-01-17 19:08:00,
2013-01-17 13:13:00,52.9,36.2,30.31,NW,313,6.0,-999.0,53,0.00,,,0.00,WeatherSnoop3.0,2013-01-17 19:13:00,
2013-01-17 13:18:00,52.9,36.2,30.31,NW,311,6.0,-999.0,53,0.00,,,0.00,WeatherSnoop3.0,2013-01-17 19:18:00,
2013-01-17 13:23:00,53.3,36.6,30.31,NW,325,1.0,-999.0,53,0.00,,,0.00,WeatherSnoop3.0,2013-01-17 19:23:00,
2013-01-17 13:28:00,53.7,36.5,30.31,NW,311,3.0,-999.0,52,0.00,,,0.00,WeatherSnoop3.0,2013-01-17 19:28:00,
2013-01-17 13:33:00,53.6,35.4,30.31,West,279,5.0,-999.0,50,0.00,,,0.00,WeatherSnoop3.0,2013-01-17 19:33:00,
2013-01-17 13:38:00,53.8,35.6,30.30,WNW,298,7.0,-999.0,50,0.00,,,0.00,WeatherSnoop3.0,2013-01-17 19:38:00,
2013-01-17 13:43:00,54.0,36.3,30.30,NW,314,4.0,-999.0,51,0.00,,,0.00,WeatherSnoop3.0,2013-01-17 19:43:00,
2013-01-17 13:48:00,54.5,37.7,30.30,NW,321,6.0,-999.0,53,0.00,,,0.00,WeatherSnoop3.0,2013-01-17 19:48:00,
2013-01-17 13:53:00,54.6,36.8,30.30,West,275,0.0,-999.0,51,0.00,,,0.00,WeatherSnoop3.0,2013-01-17 19:53:00,
2013-01-17 13:58:00,54.7,36.9,30.30,NW,309,2.0,-999.0,51,0.00,,,0.00,WeatherSnoop3.0,2013-01-17 19:58:00,
2013-01-17 14:03:00,54.8,37.5,30.30,NW,306,0.0,-999.0,52,0.00,,,0.00,WeatherSnoop3.0,2013-01-17 20:03:00,
2013-01-17 14:08:00,54.9,36.1,30.30,WNW,284,7.0,-999.0,49,0.00,,,0.00,WeatherSnoop3.0,2013-01-17 20:08:00,
2013-01-17 14:13:00,55.2,38.4,30.30,NW,313,7.0,-999.0,53,0.00,,,0.00,WeatherSnoop3.0,2013-01-17 20:13:00,
2013-01-17 14:18:00,55.1,36.3,30.30,NW,304,4.0,-999.0,49,0.00,,,0.00,WeatherSnoop3.0,2013-01-17 20:18:00,
2013-01-17 14:23:00,55.2,37.4,30.30,West,260,5.0,-999.0,51,0.00,,,0.00,WeatherSnoop3.0,2013-01-17 20:23:00,
2013-01-17 14:28:00,55.8,37.9,30.30,WNW,284,6.0,-999.0,51,0.00,,,0.00,WeatherSnoop3.0,2013-01-17 20:28:00,
2013-01-17 14:33:00,56.2,38.8,30.30,North,360,4.0,-999.0,52,0.00,,,0.00,WeatherSnoop3.0,2013-01-17 20:33:00,
2013-01-17 14:38:00,56.2,40.3,30.30,NNW,344,12.0,-999.0,55,0.00,,,0.00,WeatherSnoop3.0,2013-01-17 20:38:00,
2013-01-17 14:43:00,56.4,39.5,30.30,NW,321,0.0,-999.0,53,0.00,,,0.00,WeatherSnoop3.0,2013-01-17 20:43:00,
2013-01-17 14:48:00,56.7,38.8,30.30,North,355,3.0,-999.0,51,0.00,,,0.00,WeatherSnoop3.0,2013-01-17 20:48:00,
2013-01-17 14:53:00,56.9,39.5,30.30,North,5,0.0,-999.0,52,0.00,,,0.00,WeatherSnoop3.0,2013-01-17 20:53:00,
2013-01-17 14:58:00,57.3,39.8,30.30,North,355,3.0,-999.0,52,0.00,,,0.00,WeatherSnoop3.0,2013-01-17 20:58:00,
2013-01-17 15:03:00,57.0,39.1,30.30,NW,321,4.0,-999.0,51,0.00,,,0.00,WeatherSnoop3.0,2013-01-17 21:03:00,
2013-01-17 15:08:00,56.6,39.7,30.30,NW,318,2.0,-999.0,53,0.00,,,0.00,WeatherSnoop3.0,2013-01-17 21:08:00,
2013-01-17 15:13:00,56.9,40.9,30.30,NW,318,9.0,-999.0,55,0.00,,,0.00,WeatherSnoop3.0,2013-01-17 21:13:00,
2013-01-17 15:18:00,56.5,39.6,30.31,NNE,22,7.0,-999.0,53,0.00,,,0.00,WeatherSnoop3.0,2013-01-17 21:18:00,
2013-01-17 15:23:00,56.2,40.7,30.31,NNW,345,2.0,-999.0,56,0.00,,,0.00,WeatherSnoop3.0,2013-01-17 21:23:00,
2013-01-17 15:28:00,56.4,40.0,30.31,North,360,3.0,-999.0,54,0.00,,,0.00,WeatherSnoop3.0,2013-01-17 21:28:00,
2013-01-17 15:33:00,56.5,39.6,30.31,NE,40,11.0,-999.0,53,0.00,,,0.00,WeatherSnoop3.0,2013-01-17 21:33:00,
2013-01-17 15:38:00,56.0,39.6,30.31,North,360,8.0,-999.0,54,0.00,,,0.00,WeatherSnoop3.0,2013-01-17 21:38:00,
2013-01-17 15:43:00,55.5,40.1,30.32,NNE,25,4.0,-999.0,56,0.00,,,0.00,WeatherSnoop3.0,2013-01-17 21:43:00,
2013-01-17 15:48:00,55.3,38.5,30.32,NNE,22,6.0,-999.0,53,0.00,,,0.00,WeatherSnoop3.0,2013-01-17 21:48:00,
2013-01-17 15:53:00,55.4,40.0,30.32,North,360,2.0,-999.0,56,0.00,,,0.00,WeatherSnoop3.0,2013-01-17 21:53:00,
2013-01-17 15:58:00,55.4,39.5,30.32,North,360,4.0,-999.0,55,0.00,,,0.00,WeatherSnoop3.0,2013-01-17 21:58:00,
2013-01-17 16:03:00,55.3,39.4,30.33,NNW,341,5.0,-999.0,55,0.00,,,0.00,WeatherSnoop3.0,2013-01-17 22:03:00,
2013-01-17 16:08:00,55.1,38.8,30.33,North,355,8.0,-999.0,54,0.00,,,0.00,WeatherSnoop3.0,2013-01-17 22:08:00,
2013-01-17 16:13:00,54.8,39.4,30.33,North,360,2.0,-999.0,56,0.00,,,0.00,WeatherSnoop3.0,2013-01-17 22:13:00,
2013-01-17 16:18:00,54.5,39.6,30.33,North,350,2.0,-999.0,57,0.00,,,0.00,WeatherSnoop3.0,2013-01-17 22:18:00,
2013-01-17 16:23:00,54.4,40.4,30.33,North,360,3.0,-999.0,59,0.00,,,0.00,WeatherSnoop3.0,2013-01-17 22:23:00,
2013-01-17 16:28:00,54.3,38.9,30.33,NNW,342,0.0,-999.0,56,0.00,,,0.00,WeatherSnoop3.0,2013-01-17 22:28:00,
2013-01-17 16:33:00,54.1,39.7,30.34,North,355,4.0,-999.0,58,0.00,,,0.00,WeatherSnoop3.0,2013-01-17 22:33:00,
2013-01-17 16:38:00,53.9,39.9,30.34,North,355,2.0,-999.0,59,0.00,,,0.00,WeatherSnoop3.0,2013-01-17 22:38:00,
2013-01-17 16:43:00,53.5,40.4,30.34,North,9,1.0,-999.0,61,0.00,,,0.00,WeatherSnoop3.0,2013-01-17 22:43:00,
2013-01-17 16:48:00,53.5,39.5,30.35,North,355,2.0,-999.0,59,0.00,,,0.00,WeatherSnoop3.0,2013-01-17 22:48:00,
2013-01-17 16:53:00,53.1,40.0,30.35,NNW,344,0.0,-999.0,61,0.00,,,0.00,WeatherSnoop3.0,2013-01-17 22:53:00,
2013-01-17 16:58:00,52.6,40.8,30.35,North,360,0.0,-999.0,64,0.00,,,0.00,WeatherSnoop3.0,2013-01-17 22:58:00,
2013-01-17 17:03:00,52.2,40.0,30.36,NW,325,0.0,-999.0,63,0.00,,,0.00,WeatherSnoop3.0,2013-01-17 23:03:00,
2013-01-17 17:08:00,52.1,39.9,30.36,NNW,328,0.0,-999.0,63,0.00,,,0.00,WeatherSnoop3.0,2013-01-17 23:08:00,
2013-01-17 17:13:00,51.7,40.3,30.36,NNW,327,0.0,-999.0,65,0.00,,,0.00,WeatherSnoop3.0,2013-01-17 23:13:00,
2013-01-17 17:18:00,50.8,40.2,30.36,NNW,328,0.0,-999.0,67,0.00,,,0.00,WeatherSnoop3.0,2013-01-17 23:18:00,
2013-01-17 17:23:00,50.2,39.7,30.36,NNW,328,0.0,-999.0,67,0.00,,,0.00,WeatherSnoop3.0,2013-01-17 23:23:00,
2013-01-17 17:28:00,49.7,39.6,30.37,NNW,328,0.0,-999.0,68,0.00,,,0.00,WeatherSnoop3.0,2013-01-17 23:28:00,
2013-01-17 17:33:00,49.4,39.7,30.37,NNW,327,0.0,-999.0,69,0.00,,,0.00,WeatherSnoop3.0,2013-01-17 23:33:00,
2013-01-17 17:38:00,49.1,39.7,30.37,NNW,328,0.0,-999.0,70,0.00,,,0.00,WeatherSnoop3.0,2013-01-17 23:38:00,
2013-01-17 17:43:00,48.7,39.4,30.38,NNW,327,0.0,-999.0,70,0.00,,,0.00,WeatherSnoop3.0,2013-01-17 23:43:00,
2013-01-17 17:48:00,48.4,39.1,30.38,North,360,0.0,-999.0,70,0.00,,,0.00,WeatherSnoop3.0,2013-01-17 23:48:00,
2013-01-17 17:53:00,48.1,39.1,30.38,NNW,327,0.0,-999.0,71,0.00,,,0.00,WeatherSnoop3.0,2013-01-17 23:53:00,
2013-01-17 17:58:00,47.7,39.5,30.38,NNW,328,0.0,-999.0,73,0.00,,,0.00,WeatherSnoop3.0,2013-01-17 23:58:00,
2013-01-17 18:03:00,47.2,39.0,30.38,NNW,327,0.0,-999.0,73,0.00,,,0.00,WeatherSnoop3.0,2013-01-18 00:03:00,
2013-01-17 18:08:00,46.8,39.0,30.39,NNW,327,0.0,-999.0,74,0.00,,,0.00,WeatherSnoop3.0,2013-01-18 00:08:00,
2013-01-17 18:13:00,46.4,38.9,30.39,NNW,327,0.0,-999.0,75,0.00,,,0.00,WeatherSnoop3.0,2013-01-18 00:13:00,
2013-01-17 18:18:00,45.9,38.8,30.39,NNW,327,0.0,-999.0,76,0.00,,,0.00,WeatherSnoop3.0,2013-01-18 00:18:00,
2013-01-17 18:23:00,45.5,38.4,30.39,NNW,327,0.0,-999.0,76,0.00,,,0.00,WeatherSnoop3.0,2013-01-18 00:23:00,
2013-01-17 18:28:00,45.1,38.3,30.39,NNW,327,0.0,-999.0,77,0.00,,,0.00,WeatherSnoop3.0,2013-01-18 00:28:00,
2013-01-17 18:33:00,44.7,38.3,30.40,NNW,328,0.0,-999.0,78,0.00,,,0.00,WeatherSnoop3.0,2013-01-18 00:33:00,
2013-01-17 18:38:00,44.4,38.0,30.40,NNW,327,0.0,-999.0,78,0.00,,,0.00,WeatherSnoop3.0,2013-01-18 00:38:00,
2013-01-17 18:43:00,44.0,37.6,30.40,NNW,327,0.0,-999.0,78,0.00,,,0.00,WeatherSnoop3.0,2013-01-18 00:43:00,
2013-01-17 18:48:00,43.7,37.6,30.40,NNW,327,0.0,-999.0,79,0.00,,,0.00,WeatherSnoop3.0,2013-01-18 00:48:00,
2013-01-17 18:53:00,43.3,37.2,30.41,NNW,329,0.0,-999.0,79,0.00,,,0.00,WeatherSnoop3.0,2013-01-18 00:53:00,
2013-01-17 18:58:00,43.0,37.3,30.41,North,360,0.0,-999.0,80,0.00,,,0.00,WeatherSnoop3.0,2013-01-18 00:58:00,
2013-01-17 19:03:00,42.7,37.3,30.41,NNW,328,0.0,-999.0,81,0.00,,,0.00,WeatherSnoop3.0,2013-01-18 01:03:00,
2013-01-17 19:08:00,42.5,37.1,30.41,NNW,327,0.0,-999.0,81,0.00,,,0.00,WeatherSnoop3.0,2013-01-18 01:08:00,
2013-01-17 19:13:00,42.3,37.2,30.41,NNW,327,0.0,-999.0,82,0.00,,,0.00,WeatherSnoop3.0,2013-01-18 01:13:00,
2013-01-17 19:18:00,42.2,37.4,30.41,NNW,327,0.0,-999.0,83,0.00,,,0.00,WeatherSnoop3.0,2013-01-18 01:18:00,
2013-01-17 19:23:00,42.1,37.3,30.42,NNW,327,0.0,-999.0,83,0.00,,,0.00,WeatherSnoop3.0,2013-01-18 01:23:00,
2013-01-17 19:28:00,42.0,37.5,30.42,NNW,328,0.0,-999.0,84,0.00,,,0.00,WeatherSnoop3.0,2013-01-18 01:28:00,
2013-01-17 19:33:00,41.8,37.3,30.42,NNW,327,0.0,-999.0,84,0.00,,,0.00,WeatherSnoop3.0,2013-01-18 01:33:00,
2013-01-17 19:38:00,41.6,37.1,30.42,NNW,327,0.0,-999.0,84,0.00,,,0.00,WeatherSnoop3.0,2013-01-18 01:38:00,
2013-01-17 19:43:00,41.4,37.2,30.42,NNW,328,0.0,-999.0,85,0.00,,,0.00,WeatherSnoop3.0,2013-01-18 01:43:00,
2013-01-17 19:48:00,41.2,37.0,30.42,NNW,327,0.0,-999.0,85,0.00,,,0.00,WeatherSnoop3.0,2013-01-18 01:48:00,
2013-01-17 19:53:00,40.9,36.7,30.42,NNW,328,0.0,-999.0,85,0.00,,,0.00,WeatherSnoop3.0,2013-01-18 01:53:00,
2013-01-17 19:58:00,40.7,36.8,30.43,NNW,328,0.0,-999.0,86,0.00,,,0.00,WeatherSnoop3.0,2013-01-18 01:58:00,
2013-01-17 20:03:00,40.5,36.6,30.43,NNW,327,0.0,-999.0,86,0.00,,,0.00,WeatherSnoop3.0,2013-01-18 02:03:00,
2013-01-17 20:08:00,40.4,36.8,30.43,NNW,327,0.0,-999.0,87,0.00,,,0.00,WeatherSnoop3.0,2013-01-18 02:08:00,
2013-01-17 20:13:00,40.4,36.8,30.43,NNW,327,0.0,-999.0,87,0.00,,,0.00,WeatherSnoop3.0,2013-01-18 02:13:00,
2013-01-17 20:18:00,40.2,38.1,30.44,NNW,327,0.0,-999.0,92,0.00,,,0.00,WeatherSnoop3.0,2013-01-18 02:18:00,
2013-01-17 20:23:00,40.1,36.8,30.44,NNW,327,0.0,-999.0,88,0.00,,,0.00,WeatherSnoop3.0,2013-01-18 02:23:00,
2013-01-17 20:28:00,40.0,36.7,30.44,NNW,327,0.0,-999.0,88,0.00,,,0.00,WeatherSnoop3.0,2013-01-18 02:28:00,
2013-01-17 20:33:00,39.8,36.5,30.44,NNW,328,0.0,-999.0,88,0.00,,,0.00,WeatherSnoop3.0,2013-01-18 02:33:00,
2013-01-17 20:38:00,39.6,36.6,30.45,NNW,327,0.0,-999.0,89,0.00,,,0.00,WeatherSnoop3.0,2013-01-18 02:38:00,
2013-01-17 20:43:00,39.6,36.9,30.45,NNW,328,0.0,-999.0,90,0.00,,,0.00,WeatherSnoop3.0,2013-01-18 02:43:00,
2013-01-17 20:48:00,39.6,36.9,30.45,NNW,328,0.0,-999.0,90,0.00,,,0.00,WeatherSnoop3.0,2013-01-18 02:48:00,
2013-01-17 20:53:00,39.6,36.9,30.45,NNW,328,0.0,-999.0,90,0.00,,,0.00,WeatherSnoop3.0,2013-01-18 02:53:00,
2013-01-17 20:58:00,39.7,37.3,30.45,NNW,328,0.0,-999.0,91,0.00,,,0.00,WeatherSnoop3.0,2013-01-18 02:58:00,
2013-01-17 21:03:00,39.7,37.3,30.45,NNW,327,0.0,-999.0,91,0.00,,,0.00,WeatherSnoop3.0,2013-01-18 03:03:00,
2013-01-17 21:08:00,39.6,36.9,30.45,NNW,328,0.0,-999.0,90,0.00,,,0.00,WeatherSnoop3.0,2013-01-18 03:08:00,
2013-01-17 21:13:00,39.5,36.8,30.45,NNW,328,0.0,-999.0,90,0.00,,,0.00,WeatherSnoop3.0,2013-01-18 03:13:00,
2013-01-17 21:18:00,39.3,36.6,30.45,North,360,0.0,-999.0,90,0.00,,,0.00,WeatherSnoop3.0,2013-01-18 03:18:00,
2013-01-17 21:23:00,39.1,36.4,30.45,NNW,327,0.0,-999.0,90,0.00,,,0.00,WeatherSnoop3.0,2013-01-18 03:23:00,
2013-01-17 21:28:00,38.8,36.1,30.45,NNW,328,0.0,-999.0,90,0.00,,,0.00,WeatherSnoop3.0,2013-01-18 03:28:00,
2013-01-17 21:33:00,38.7,36.0,30.45,NNW,327,0.0,-999.0,90,0.00,,,0.00,WeatherSnoop3.0,2013-01-18 03:33:00,
2013-01-17 21:38:00,38.5,36.1,30.45,NNW,328,0.0,-999.0,91,0.00,,,0.00,WeatherSnoop3.0,2013-01-18 03:38:00,
2013-01-17 21:43:00,38.3,35.9,30.45,NNW,327,0.0,-999.0,91,0.00,,,0.00,WeatherSnoop3.0,2013-01-18 03:43:00,
2013-01-17 21:48:00,38.3,35.9,30.45,NNW,328,0.0,-999.0,91,0.00,,,0.00,WeatherSnoop3.0,2013-01-18 03:48:00,
2013-01-17 21:53:00,38.1,35.7,30.45,NNW,327,0.0,-999.0,91,0.00,,,0.00,WeatherSnoop3.0,2013-01-18 03:53:00,
2013-01-17 21:58:00,38.0,35.9,30.45,NNW,328,0.0,-999.0,92,0.00,,,0.00,WeatherSnoop3.0,2013-01-18 03:58:00,
2013-01-17 22:03:00,37.8,35.4,30.46,NNW,327,0.0,-999.0,91,0.00,,,0.00,WeatherSnoop3.0,2013-01-18 04:03:00,
2013-01-17 22:08:00,37.7,35.6,30.46,NNW,327,0.0,-999.0,92,0.00,,,0.00,WeatherSnoop3.0,2013-01-18 04:08:00,
2013-01-17 22:13:00,37.5,35.4,30.46,NNW,327,0.0,-999.0,92,0.00,,,0.00,WeatherSnoop3.0,2013-01-18 04:13:00,
2013-01-17 22:18:00,37.4,35.3,30.46,NNW,327,0.0,-999.0,92,0.00,,,0.00,WeatherSnoop3.0,2013-01-18 04:18:00,
2013-01-17 22:23:00,37.3,35.2,30.46,NNW,328,0.0,-999.0,92,0.00,,,0.00,WeatherSnoop3.0,2013-01-18 04:23:00,
2013-01-17 22:28:00,37.3,35.5,30.46,NNW,327,0.0,-999.0,93,0.00,,,0.00,WeatherSnoop3.0,2013-01-18 04:28:00,
2013-01-17 22:33:00,37.2,35.4,30.46,NNW,327,0.0,-999.0,93,0.00,,,0.00,WeatherSnoop3.0,2013-01-18 04:33:00,
2013-01-17 22:38:00,37.0,35.2,30.46,North,360,0.0,-999.0,93,0.00,,,0.00,WeatherSnoop3.0,2013-01-18 04:38:00,
2013-01-17 22:43:00,36.9,35.1,30.47,NNW,328,0.0,-999.0,93,0.00,,,0.00,WeatherSnoop3.0,2013-01-18 04:43:00,
2013-01-17 22:48:00,36.8,35.0,30.47,NNW,328,0.0,-999.0,93,0.00,,,0.00,WeatherSnoop3.0,2013-01-18 04:48:00,
2013-01-17 22:53:00,36.8,35.0,30.47,NNW,328,0.0,-999.0,93,0.00,,,0.00,WeatherSnoop3.0,2013-01-18 04:53:00,
2013-01-17 22:58:00,36.7,34.9,30.47,NNW,327,0.0,-999.0,93,0.00,,,0.00,WeatherSnoop3.0,2013-01-18 04:58:00,
2013-01-17 23:00:00,36.7,34.9,30.47,NNW,328,0.0,-999.0,93,0.00,,,0.00,WeatherSnoop3.0,2013-01-18 05:00:00,
2013-01-17 23:02:00,36.8,35.2,30.47,NNW,328,0.0,-999.0,94,0.00,,,0.00,WeatherSnoop3.0,2013-01-18 05:02:00,
2013-01-17 23:07:00,36.9,35.3,30.47,NNW,327,0.0,-999.0,94,0.00,,,0.00,WeatherSnoop3.0,2013-01-18 05:07:00,
2013-01-17 23:12:00,36.9,35.3,30.47,NNW,327,0.0,-999.0,94,0.00,,,0.00,WeatherSnoop3.0,2013-01-18 05:12:00,
2013-01-17 23:17:00,36.9,35.3,30.47,NNW,327,0.0,-999.0,94,0.00,,,0.00,WeatherSnoop3.0,2013-01-18 05:17:00,
2013-01-17 23:22:00,37.0,35.4,30.47,North,360,0.0,-999.0,94,0.00,,,0.00,WeatherSnoop3.0,2013-01-18 05:22:00,
2013-01-17 23:27:00,37.2,35.9,30.47,NNW,327,0.0,-999.0,95,0.00,,,0.00,WeatherSnoop3.0,2013-01-18 05:27:00,
2013-01-17 23:32:00,37.2,35.9,30.47,NNW,327,0.0,-999.0,95,0.00,,,0.00,WeatherSnoop3.0,2013-01-18 05:32:00,
2013-01-17 23:37:00,37.2,35.9,30.47,NNW,327,0.0,-999.0,95,0.00,,,0.00,WeatherSnoop3.0,2013-01-18 05:37:00,
2013-01-17 23:42:00,37.1,35.8,30.47,NNW,327,0.0,-999.0,95,0.00,,,0.00,WeatherSnoop3.0,2013-01-18 05:42:00,
2013-01-17 23:47:00,37.5,36.2,30.47,NNW,328,0.0,-999.0,95,0.00,,,0.00,WeatherSnoop3.0,2013-01-18 05:47:00,
2013-01-17 23:52:00,37.6,36.3,30.47,NNW,327,0.0,-999.0,95,0.00,,,0.00,WeatherSnoop3.0,2013-01-18 05:52:00,
2013-01-17 23:57:00,37.6,36.3,30.47,NNW,328,0.0,-999.0,95,0.00,,,0.00,WeatherSnoop3.0,2013-01-18 05:57:00,